Location: Casilda
(33.0440°S, 61.1680°W)
Time: 00:29:32
(UTC-03:00)

ISS - Pass Details

Date: 09 May 2021
Orbit: 417 x 422 km, 51.6° (Epoch: 12 May)

Event Time Altitude Azimuth Distance (km) Brightness Sun altitude
Rises 19:41:20 0° 234° (SW) 2,388 0.8 -17.7°
Reaches altitude 10° 19:43:32 10° 242° (WSW) 1,516 -0.2 -18.2°
Maximum altitude 19:46:44 38° 311° (NW) 657 -2.4 -18.8°
Enters shadow 19:49:12 15° 16° (NNE) 1,240 -1.5 -19.4°
